Kremmling, CO

1:44 AM MDT on August 18, 2017 (GMT -0600)
Kremmling

Weather History for K20V - June, 2013

Change the Weather History Date:

Monday, June 3, 2013

  Actual Average Record
Temperature  
Mean Temperature 54 °F -  
Max Temperature 77 °F - 82 °F (2006)
Min Temperature 32 °F - 32 °F (2011)
Degree Days  
Heating Degree Days 10    
Month to date heating degree days  
Cooling Degree Days 0    
Month to date cooling degree days  
Growing Degree Days 4 (Base 50)    
Moisture  
Dew Point 24 °F    
Average Humidity 36    
Maximum Humidity 81    
Minimum Humidity 9    
Precipitation  
Precipitation 0.00 in - 0.49 in (2005)
Sea Level Pressure  
Sea Level Pressure 30.03 in    
Wind  
Wind Speed 4 mph (West)    
Max Wind Speed 26 mph    
Max Gust Speed 46 mph    
Visibility 10 miles    
Events      
T = Trace of Precipitation, MM = Missing Value Source: NWS Daily Summary

Daily Weather History Graph

Daily Weather History Graph

Search for Another Location

Airport or City:

Trip Planner

Search our weather history database for the weather conditions in past years. The results will help you decide how hot, cold, wet, or windy it might be!

Date:

Astronomy

Jun. 03, 2013 Rise Set
Actual Time 5:37 AM MDT 8:30 PM MDT
Civil Twilight 5:05 AM MDT 9:02 PM MDT
Nautical Twilight 4:24 AM MDT 9:43 PM MDT
Astronomical Twilight 3:37 AM MDT 10:30 PM MDT
Moon 2:36 AM MDT (6/3) 4:03 PM MDT (6/3)
Length of Visible Light 15h 57m
Length of Day
14h 52m
Waning Crescent, 21% of the Moon is Illuminated
Jun 3
Waning Crescent
Jun 8
New
Jun 16
First Quarter
Jun 23
Full
Jun 29
Last Quarter

Hourly Weather History & Observations

Time (MDT) Temp. Dew Point Humidity Pressure Visibility Wind Dir Wind Speed Gust Speed Precip Events Conditions
12:15 AM 46.4 °F 28.4 °F 50% 30.04 in 10.0 mi Calm Calm - N/A   Clear
12:36 AM 41.0 °F 26.6 °F 57% 30.04 in 10.0 mi Calm Calm - N/A   Clear
12:55 AM 44.6 °F 28.4 °F 53% 30.04 in 10.0 mi Calm Calm - N/A   Clear
1:16 AM 41.0 °F 26.6 °F 57% 30.04 in 10.0 mi Calm Calm - N/A   Clear
1:36 AM 39.2 °F 26.6 °F 61% 30.04 in 10.0 mi Calm Calm - N/A   Clear
1:56 AM 37.4 °F 28.4 °F 70% 30.04 in 10.0 mi Calm Calm - N/A   Clear
2:16 AM 37.4 °F 28.4 °F 70% 30.03 in 10.0 mi Calm Calm - N/A   Clear
2:36 AM 37.4 °F 26.6 °F 65% 30.03 in 10.0 mi Calm Calm - N/A   Clear
2:56 AM 35.6 °F 28.4 °F 75% 30.03 in 10.0 mi Calm Calm - N/A   Clear
3:16 AM 35.6 °F 26.6 °F 70% 30.03 in 10.0 mi Calm Calm - N/A   Clear
3:36 AM 35.6 °F 28.4 °F 75% 30.03 in 10.0 mi Calm Calm - N/A   Clear
3:56 AM 33.8 °F 26.6 °F 75% 30.02 in 10.0 mi Calm Calm - N/A   Clear
4:16 AM 33.8 °F 28.4 °F 81% 30.02 in 10.0 mi Calm Calm - N/A   Clear
4:36 AM 33.8 °F 26.6 °F 75% 30.02 in 10.0 mi Calm Calm - N/A   Clear
4:55 AM 33.8 °F 28.4 °F 81% 30.02 in 10.0 mi Calm Calm - N/A   Clear
5:16 AM 33.8 °F 28.4 °F 81% 30.02 in 10.0 mi Calm Calm - N/A   Clear
5:36 AM 32.0 °F 26.6 °F 80% 30.03 in 10.0 mi Calm Calm - N/A   Clear
5:56 AM 33.8 °F 28.4 °F 81% 30.03 in 10.0 mi Calm Calm - N/A   Clear
6:16 AM 33.8 °F 28.4 °F 81% 30.04 in 10.0 mi Calm Calm - N/A   Clear
6:36 AM 33.8 °F 26.6 °F 75% 30.04 in 10.0 mi Calm Calm - N/A   Clear
6:56 AM 35.6 °F 30.2 °F 81% 30.04 in 10.0 mi Calm Calm - N/A   Clear
7:16 AM 37.4 °F 30.2 °F 75% 30.04 in 10.0 mi Calm Calm - N/A   Clear
7:36 AM 41.0 °F 30.2 °F 65% 30.04 in 10.0 mi Calm Calm - N/A   Clear
7:56 AM 44.6 °F 30.2 °F 57% 30.04 in 10.0 mi Calm Calm - N/A   Clear
8:16 AM 50.0 °F 32.0 °F 50% 30.04 in 10.0 mi Calm Calm - N/A   Clear
8:36 AM 50.0 °F 30.2 °F 47% 30.04 in 10.0 mi Calm Calm - N/A   Clear
8:56 AM 53.6 °F 28.4 °F 38% 30.04 in 10.0 mi Calm Calm - N/A   Clear
9:16 AM 55.4 °F 30.2 °F 38% 30.04 in 10.0 mi Calm Calm - N/A   Clear
9:36 AM 59.0 °F 30.2 °F 34% 30.04 in 10.0 mi Calm Calm - N/A   Clear
9:56 AM 60.8 °F 28.4 °F 29% 30.03 in 10.0 mi Calm Calm - N/A   Clear
10:16 AM 62.6 °F 26.6 °F 26% 30.02 in 10.0 mi Calm Calm - N/A   Clear
10:35 AM 69.8 °F 28.4 °F 21% 30.02 in 10.0 mi Calm Calm - N/A   Clear
10:56 AM 71.6 °F 23.0 °F 16% 30.02 in 10.0 mi West 10.4 mph 19.6 mph N/A   Clear
11:16 AM 73.4 °F 21.2 °F 14% 30.01 in 10.0 mi SW 4.6 mph - N/A   Clear
11:36 AM 73.4 °F 19.4 °F 13% 30.01 in 10.0 mi SW 13.8 mph - N/A   Clear
11:56 AM 77.0 °F 14.0 °F 9% 30.00 in 10.0 mi WSW 13.8 mph 25.3 mph N/A   Scattered Clouds
12:16 PM 73.4 °F 17.6 °F 12% 30.01 in 10.0 mi West 16.1 mph 23.0 mph N/A   Mostly Cloudy
12:36 PM 69.8 °F 21.2 °F 16% 30.00 in 10.0 mi WNW 8.1 mph - N/A   Mostly Cloudy
12:56 PM 71.6 °F 23.0 °F 16% 30.00 in 10.0 mi WNW 5.8 mph - N/A   Scattered Clouds
1:16 PM 71.6 °F 21.2 °F 15% 29.99 in 10.0 mi West 11.5 mph 18.4 mph N/A   Mostly Cloudy
1:35 PM 73.4 °F 17.6 °F 12% 29.98 in 10.0 mi West 18.4 mph 24.2 mph N/A   Mostly Cloudy
1:56 PM 73.4 °F 19.4 °F 13% 29.99 in 10.0 mi West 15.0 mph 25.3 mph N/A   Mostly Cloudy
2:16 PM 73.4 °F 23.0 °F 15% 29.98 in 10.0 mi SW 20.7 mph 31.1 mph N/A   Mostly Cloudy
2:36 PM 71.6 °F 19.4 °F 14% 29.99 in 10.0 mi SW 26.5 mph 35.7 mph N/A   Mostly Cloudy
2:56 PM 69.8 °F 23.0 °F 17% 30.01 in 7.0 mi SW 21.9 mph 46.0 mph N/A   Mostly Cloudy
3:16 PM 73.4 °F 21.2 °F 14% 30.00 in 10.0 mi SW 16.1 mph 35.7 mph N/A   Scattered Clouds
3:36 PM 75.2 °F 17.6 °F 11% 30.00 in 10.0 mi WSW 12.7 mph 29.9 mph N/A   Clear
3:56 PM 73.4 °F 21.2 °F 14% 30.01 in 10.0 mi WSW 23.0 mph 32.2 mph N/A   Scattered Clouds
4:16 PM 73.4 °F 21.2 °F 14% 30.00 in 10.0 mi South 10.4 mph 26.5 mph N/A   Mostly Cloudy
4:36 PM 69.8 °F 23.0 °F 17% 30.00 in 10.0 mi WNW 6.9 mph - N/A   Scattered Clouds
4:56 PM 69.8 °F 24.8 °F 18% 30.03 in 10.0 mi WNW 17.3 mph 28.8 mph N/A   Mostly Cloudy
5:16 PM 69.8 °F 24.8 °F 18% 30.03 in 10.0 mi WNW 20.7 mph 39.1 mph N/A   Mostly Cloudy
5:36 PM 69.8 °F 23.0 °F 17% 30.03 in 10.0 mi NW 10.4 mph 26.5 mph N/A   Mostly Cloudy
5:55 PM 69.8 °F 21.2 °F 16% 30.01 in 10.0 mi WNW 20.7 mph 29.9 mph N/A   Scattered Clouds
6:16 PM 71.6 °F 24.8 °F 17% 30.01 in 10.0 mi WNW 12.7 mph 23.0 mph N/A   Clear
6:36 PM 69.8 °F 24.8 °F 18% 30.02 in 10.0 mi West 19.6 mph 25.3 mph N/A   Scattered Clouds
6:56 PM 71.6 °F 23.0 °F 16% 30.02 in 10.0 mi West 11.5 mph 20.7 mph N/A   Scattered Clouds
7:16 PM 71.6 °F 23.0 °F 16% 30.02 in 10.0 mi WSW 9.2 mph 23.0 mph N/A   Clear
7:36 PM 69.8 °F 21.2 °F 16% 30.02 in 10.0 mi WSW 12.7 mph 31.1 mph N/A   Clear
7:56 PM 69.8 °F 23.0 °F 17% 30.02 in 10.0 mi West 9.2 mph 18.4 mph N/A   Clear
8:15 PM 66.2 °F 21.2 °F 18% 30.02 in 10.0 mi West 8.1 mph 18.4 mph N/A   Clear
8:36 PM 66.2 °F 24.8 °F 21% 30.04 in 10.0 mi West 10.4 mph - N/A   Clear
8:56 PM 64.4 °F 23.0 °F 21% 30.06 in 10.0 mi NW 8.1 mph - N/A   Scattered Clouds
9:16 PM 62.6 °F 21.2 °F 20% 30.07 in 10.0 mi NW 10.4 mph - N/A   Clear
9:36 PM 62.6 °F 19.4 °F 19% 30.08 in 10.0 mi NW 8.1 mph - N/A   Clear
9:55 PM 59.0 °F 19.4 °F 22% 30.10 in 10.0 mi WNW 9.2 mph - N/A   Clear
10:16 PM 59.0 °F 8.6 °F 14% 30.11 in 10.0 mi WNW 11.5 mph - N/A   Clear
10:36 PM 59.0 °F 8.6 °F 14% 30.12 in 10.0 mi West 6.9 mph - N/A   Clear
10:56 PM 55.4 °F 10.4 °F 17% 30.12 in 10.0 mi Calm Calm - N/A   Scattered Clouds
11:16 PM 57.2 °F 10.4 °F 16% 30.13 in 10.0 mi Calm Calm - N/A   Overcast
11:36 PM 55.4 °F 12.2 °F 18% 30.14 in 10.0 mi Calm Calm - N/A   Overcast
11:56 PM 55.4 °F 12.2 °F 18% 30.14 in 10.0 mi Calm Calm - N/A   Mostly Cloudy